Tracking 31013 objects as of 11-Jul-2025
HD Live streaming from Space Station
objects crossing your sky now

FENGYUN 1C DEB

Track FENGYUN 1C DEB now!
10-day predictions


NORAD ID: 30320
Int'l Code: 1999-025AAH
Perigee: 843.6 km
Apogee: 968.9 km
Inclination: 99.2 °
Period: 103.0 minutes
Semi major axis: 7277 km
RCS: 0.0266 m2 (small)
Launch date: May 10, 1999
Source: People's Republic of China (PRC)
Launch site: Taiyaun Space Center, China (TSC)

Note: This is SATELLITE DEBRIS
Your satellite tracking list
Your tracking list is empty




NASA's NSSDC Master Catalog

Two Line Element Set (TLE):
1 30320U 99025AAH 25191.11040123  .00000191  00000-0  15983-3 0  9993
2 30320  99.2093 249.9502 0086116   1.8655  27.7073 13.98457423942322
Source of the keplerian elements: AFSPC